Location: Fianello
(42.3667°N, 12.5500°E)
Time: 09:24:37
(UTC+00:00)

Daily predictions for brighter satellites

Satellite Brightness Start Highest point End
(mag) Time Altitude Azimuth Time Altitude Azimuth Time Altitude Azimuth
STARLINK-1093 4.3 19:05:11 10° WNW 19:09:11 47° SW 19:13:09 10° SSE
STARLINK-1071 4.3 19:07:29 10° NW 19:11:30 47° NNE 19:15:30 10° ESE
H-2A R/B 3.2 19:07:41 10° S 19:12:28 43° W 19:17:25 10° NNW
STARLINK-1138 4.0 19:08:55 10° WSW 19:13:03 72° NW 19:17:12 10° NE
Okean 1-7 3.5 19:08:50 10° SSW 19:13:04 67° W 19:17:19 10° N
STARLINK-1074 4.5 19:10:14 10° WNW 19:14:09 43° SW 19:18:05 10° SSE
SL-08 RB Rocket 4.1 19:09:52 10° S 19:14:26 67° WSW 19:18:59 10° NNW
STARLINK-1110 4.2 19:11:15 10° NW 19:15:18 50° NNE 19:19:19 10° ESE
Abrixas rocket 3.8 19:13:28 10° NW 19:16:03 27° N 19:18:38 10° ENE
Aureole 1 Rocket 4.0 19:12:09 10° NNW 19:16:49 67° WSW 19:22:59 10° S
STARLINK-1143 4.1 19:13:54 10° WSW 19:18:01 66° NNW 19:22:09 10° NE
CZ-2C R/B 3.7 19:14:38 10° NNE 19:19:09 80° ESE 19:23:43 10° S
Resurs 1-3 3.6 19:16:18 10° SSE 19:20:40 73° ENE 19:25:03 10° N
MetOp-A 4.2 19:15:55 10° SSE 19:21:16 88° WSW 19:26:40 10° NNW
STARLINK-1124 4.1 19:17:24 10° NW 19:21:29 54° NNE 19:25:33 10° ESE
Cosmos 676 Rocket 4.1 19:16:35 10° NNW 19:21:53 86° ENE 19:27:10 10° SSE
Cosmos 1634 Rocket 4.1 19:16:31 10° N 19:22:51 72° E 19:29:10 10° SSE
STARLINK-1241 4.3 19:18:57 10° WSW 19:23:02 61° NNW 19:27:09 10° NE
STARLINK-1122 4.0 19:22:22 10° NW 19:26:28 59° NNE 19:30:34 10° ESE
STARLINK-1239 4.4 19:23:57 10° WSW 19:28:01 56° NNW 19:32:07 10° NE
Cosmos 1300 Rocket 4.0 19:23:51 10° N 19:28:08 44° ENE 19:32:22 10° SSE
NOSS 8 (E) 4.3 19:24:50 10° SSW 19:28:12 52° ESE 19:31:11 10° NE
Aureole 2 Rocket 3.5 19:28:21 10° SSE 19:30:49 21° ESE 19:33:13 10° NE
NOSS 2-2 (D) 4.4 19:28:31 10° SSE 19:31:09 19° ESE 19:33:52 10° ENE
STARLINK-1126 3.9 19:27:22 10° NW 19:31:31 64° NNE 19:35:27 11° ESE
Meteor 1-4 Rocket 3.4 19:29:24 10° SSW 19:32:44 50° WNW 19:36:09 10° N
Cosmos 1437 Rocket 3.6 19:29:25 10° SSE 19:32:45 31° E 19:36:09 10° NNE
H-2A ROCKET BODY 4.5 19:29:32 10° SSE 19:34:04 16° SE 19:43:12 10° E
Cosmos 304 Rocket 4.4 19:31:32 10° SSE 19:35:50 34° ESE 19:40:10 10° NE
USA 186 4.3 19:34:55 10° SW 19:36:19 13° W 19:37:45 10° WNW
STARLINK-1082 3.8 19:32:18 10° NW 19:36:26 69° NNE 19:40:10 12° ESE
Lacrosse 5 1.9 19:33:20 10° NW 19:38:25 89° NE 19:42:55 13° SE
STARLINK-1100 3.7 19:37:15 10° NW 19:41:24 75° NE 19:44:56 14° ESE
ISS -3.8 19:38:03 10° NW 19:41:26 90° E 19:44:06 15° SE
COSMOS 2406 4.1 19:37:35 10° NW 19:43:05 47° WSW 19:48:31 10° S
Cosmos 1975 4.0 19:39:42 10° NNW 19:43:31 42° W 19:47:18 10° SSW
CZ-2C R/B 3.2 19:38:41 10° N 19:44:16 67° WNW 19:49:49 10° SSW
Cosmos 1674 Rocket 4.1 19:42:09 10° SSE 19:46:13 40° E 19:50:20 10° NNE
Meteor 2-4 Rocket 3.8 19:40:55 10° SSW 19:46:16 77° W 19:51:39 10° N
STARLINK-1083 3.6 19:42:15 10° NW 19:46:24 81° NE 19:49:44 15° ESE
NOSS 2-2 (E) 3.5 19:44:58 10° S 19:48:17 38° ESE 19:51:51 10° NE
Cosmos 1378 Rocket 4.4 19:45:49 13° SSE 19:49:11 32° E 19:53:06 10° NNE
EXPRESS MD2 2.9 19:46:57 10° SW 19:49:39 79° SSE 19:54:29 10° ENE
STARLINK-1125 3.6 19:47:14 10° NW 19:51:24 88° NNE 19:54:32 17° SE
Cosmos 2297 3.9 19:47:28 10° S 19:52:56 52° ESE 19:58:29 10° NNE
Cosmos 1943 Rocket 3.3 19:50:21 14° SE 19:53:32 23° E 19:57:48 10° NE
Cosmos 1833 Rocket 3.1 19:49:06 10° NNW 19:54:37 59° WSW 20:00:06 10° S
STARLINK-1109 3.6 19:52:13 10° NW 19:56:23 86° SW 19:59:18 19° SE
IGS 5A 3.9 19:55:29 17° SE 19:58:22 45° ENE 20:02:21 10° N
Cosmos 1452 Rocket 3.8 19:54:23 10° SSW 19:59:37 70° WNW 20:04:56 10° NNE
Cosmos 332 Rocket 3.8 19:55:01 10° SSW 19:59:55 87° WNW 20:04:51 10° NNE
BREEZE-M DEB 2.3 19:58:29 10° SW 20:00:33 43° SE 20:04:05 10° ENE
STARLINK-1091 3.6 19:57:10 10° NW 20:01:19 79° SW 20:04:04 20° SE
Landsat 7 4.1 19:57:48 17° SE 20:01:20 53° ENE 20:05:59 10° N
Cosmos 2082 Rocket 2.2 19:55:35 10° NNW 20:01:20 85° WSW 20:06:02 16° SSE
Intercosmos 24 3.7 20:00:24 10° N 20:03:57 83° W 20:07:17 14° S
Meteor 1-23 Rocket 4.4 19:58:52 10° S 20:04:20 53° E 20:09:49 10° NNE
STARLINK-1072 3.6 20:02:11 10° WNW 20:06:19 72° SW 20:08:52 22° SE
Cosmos 1461 3.1 20:02:25 10° SW 20:06:32 77° NW 20:10:52 10° NNE
Cosmos 2369 Rocket 3.4 20:07:22 18° SE 20:09:27 22° E 20:13:43 10° NE
STARLINK-1096 3.7 20:07:10 10° WNW 20:11:17 65° SW 20:13:39 24° SE
SAR-Lupe-2 3.5 20:08:50 10° NNE 20:12:25 69° ESE 20:15:09 16° S
NOSS 2-2 (C) 3.1 20:09:21 10° SSW 20:12:50 57° ESE 20:16:33 10° NE
ASTRO E2 4.4 20:13:16 10° SW 20:15:41 17° S 20:15:41 17° S
STARLINK-1079 3.8 20:12:10 10° WNW 20:16:15 59° SW 20:18:26 25° SSE
ATLAS 2AS CENTAUR R/B 4.1 20:13:12 18° SE 20:16:22 23° ESE 20:22:16 10° ENE
SPOT 5 3.7 20:14:18 20° SE 20:17:27 41° ENE 20:22:27 10° N
SL-4 R/B 3.5 20:16:45 10° WNW 20:18:50 18° WSW 20:20:30 12° SSW
STARLINK-1116 3.9 20:17:10 10° WNW 20:21:13 54° SW 20:23:13 27° SSE
ERS-1 Rocket 3.3 20:19:40 23° SE 20:22:38 52° ENE 20:27:31 10° N
Okean 2 4.4 20:25:56 26° ESE 20:27:02 30° E 20:30:41 10° NNE
Cosmos 1066 Rocket 4.0 20:22:28 12° S 20:27:26 81° E 20:32:48 10° NNE
STARLINK-1101 4.4 20:24:27 10° NW 20:28:27 46° NNE 20:31:00 20° E
USA 245 2.8 20:27:56 30° S 20:29:12 60° WSW 20:31:49 10° NNW
STARLINK-1094 4.2 20:27:11 10° WNW 20:31:08 44° SW 20:32:47 29° S
Resurs 01 Rocket 3.3 20:28:52 10° SSW 20:32:42 28° W 20:36:33 10° NW
USA 238 DEB 4.4 20:26:13 10° NNW 20:33:14 51° NE 20:38:26 19° ESE
USA 238 4.4 20:26:19 10° NNW 20:33:19 51° NE 20:38:33 19° ESE
STARLINK-1102 4.3 20:29:25 10° NW 20:33:27 49° NNE 20:35:47 23° E
Nadezhda 4 Rocket 3.9 20:28:28 14° S 20:33:48 82° E 20:39:57 10° N
Okean 1 Rocket 3.0 20:31:09 10° N 20:35:39 86° E 20:37:53 29° S
Cosmos 1805 3.6 20:32:04 10° N 20:35:54 49° E 20:37:07 35° SE
STARLINK-1117 4.4 20:32:12 10° WNW 20:36:05 40° SW 20:37:34 29° S
GPS 2-04 Rocket1 3.7 20:33:23 10° WSW 20:35:57 24° SSW 20:35:57 24° SSW
Cosmos 1741 Rocket 4.5 20:31:18 10° NNW 20:36:24 56° WSW 20:39:48 21° S
BREEZE-M DEB (TANK) 4.3 20:28:50 10° SSW 20:38:23 26° SSE 20:39:13 25° SE
STARLINK-1111 4.2 20:34:22 10° NW 20:38:26 53° NNE 20:40:34 25° E
STARLINK-1078 4.5 20:37:13 10° WNW 20:41:03 37° SW 20:42:21 29° S
Cosmos 1455 Rocket 4.2 20:37:27 10° NNE 20:41:11 27° ENE 20:42:18 24° E
SL-8 R/B 3.9 20:38:35 10° WNW 20:43:23 68° NNE 20:46:16 24° ESE
STARLINK-1073 4.0 20:39:20 10° NW 20:43:26 57° NNE 20:45:21 29° E
Terra 2.1 20:44:22 31° SE 20:46:19 53° ENE 20:50:57 10° N
Cosmos 1110 Rocket 4.3 20:41:24 10° SSW 20:46:34 68° WNW 20:51:44 10° NNE
SL-4 R/B 2.5 20:42:17 10° SSW 20:46:49 48° SE 20:51:29 10° ENE
Spot 2 Rocket 4.2 20:44:03 18° SSW 20:47:35 47° W 20:52:27 10° NNW
ATLAS 3B CENTAUR R/B 3.7 20:36:48 10° WSW 20:48:18 32° S 20:50:57 26° SSE
SPOT 1/Viking Rocket 3.7 20:45:17 24° S 20:48:24 67° WSW 20:53:33 10° NNW
STARLINK-1121 3.9 20:44:18 10° NW 20:48:25 62° NNE 20:50:08 32° ESE
Cosmos 1842 3.8 20:48:52 37° ESE 20:49:19 39° E 20:52:58 10° NNE
CARTOSAT-1 3.5 20:47:49 35° SSE 20:49:35 88° E 20:53:56 10° NNW
Abrixas rocket 1.7 20:48:51 10° WNW 20:51:49 90° WNW 20:51:50 89° ESE
STARLINK-1106 3.8 20:49:18 10° NW 20:53:25 67° NNE 20:54:56 37° ESE
STARLINK-1112 3.7 20:54:14 10° NW 20:58:23 73° NE 20:59:42 41° ESE
STARLINK-1128 3.6 20:59:12 10° NW 21:03:21 79° NE 21:04:28 47° ESE
STARLINK-1113 3.5 21:04:11 10° NW 21:08:21 85° NE 21:09:16 54° ESE
Cosmos 1733 3.0 21:05:11 10° N 21:09:00 84° E 21:09:32 64° SSE
Meteor 1-21 4.4 21:07:51 37° SSE 21:09:43 54° E 21:15:11 10° NNE
COSMOS 2455 3.9 21:09:45 25° ESE 21:09:49 25° ESE 21:14:37 10° NE
Cosmos 1378 4.1 21:09:41 26° SW 21:11:19 43° WNW 21:14:53 10° N
STARLINK-1119 3.5 21:09:11 10° NW 21:13:21 88° SW 21:14:04 60° SE
Cosmos 1302 Rocket 4.0 21:10:13 25° SSW 21:13:25 85° WNW 21:18:45 10° NNE
Cosmos 1271 Rocket 3.7 21:14:22 33° E 21:14:22 33° E 21:17:35 10° NNE
Cosmos 1242 Rocket 2.9 21:15:26 50° E 21:15:26 50° E 21:18:48 10° NNE
JB-3 4.5 21:12:16 10° NNE 21:16:21 55° E 21:16:37 54° ESE
Cosmos 1486 Rocket 4.3 21:11:21 10° NNW 21:16:34 56° ENE 21:18:13 39° ESE
ISS -1.0 21:16:38 10° WSW 21:17:01 11° WSW 21:17:01 11° WSW
Cosmos 1544 Rocket 3.9 21:13:52 10° N 21:18:04 48° ENE 21:18:39 45° ESE
STARLINK-1114 3.5 21:14:09 10° NW 21:18:19 81° SW 21:18:49 66° SSE
STARLINK-60 4.1 21:20:10 35° NE 21:20:10 35° NE 21:22:10 10° NE
MTI 3.8 21:16:02 10° N 21:18:58 73° NNW 21:18:58 73° NNW
Cosmos 1092 Rocket 4.1 21:15:30 24° SSW 21:19:22 72° W 21:25:31 10° N
Lacrosse 5 3.9 21:17:53 10° W 21:20:44 15° WSW 21:22:07 14° SW
STARLINK-1130 (DARKSAT) 3.4 21:19:09 10° NW 21:23:17 74° SW 21:23:37 69° S
Cosmos 1707 3.8 21:24:35 33° ENE 21:24:35 33° ENE 21:27:40 10° NNE
CENTAUR R/B 3.4 21:17:57 10° NNW 21:25:59 64° NE 21:31:08 27° ESE
STARLINK-1084 3.5 21:24:08 10° WNW 21:28:16 68° SW 21:28:24 67° SSW
ATLAS 3B R/B 3.9 21:22:47 10° NNW 21:28:52 34° NE 21:33:56 15° E
SL-27 R/B 2.4 21:26:03 10° NNW 21:29:28 80° N 21:29:28 80° N
NOSS 3-2 (C) 4.2 21:23:36 10° NNW 21:31:13 74° NE 21:35:37 32° SE
Cosmos 1766 4.3 21:28:12 10° NNW 21:31:55 38° W 21:32:47 33° WSW
Cosmos 1726 3.9 21:30:11 10° NNE 21:32:50 21° ENE 21:32:50 21° ENE
STARLINK-1098 3.7 21:29:08 10° WNW 21:33:11 61° SW 21:33:11 61° SW
Cosmos 1867 4.5 21:30:44 10° NNW 21:35:55 41° NE 21:38:06 28° E
Cosmos 1943 Rocket 2.9 21:31:46 11° SW 21:36:52 51° WNW 21:42:20 10° NNE
Cosmos 1992 Rocket 4.0 21:36:08 53° SSE 21:36:59 61° ESE 21:42:07 10° NNE
STARLINK-1123 3.9 21:34:06 10° WNW 21:37:56 55° WSW 21:37:56 55° WSW
NOSS 3-4 (A) 3.3 21:36:32 42° S 21:38:24 64° ESE 21:44:34 10° NE
NOSS 3-4 (C) 3.3 21:36:41 43° S 21:38:31 63° ESE 21:44:40 10° NE
STARLINK-1097 4.1 21:39:08 10° WNW 21:42:45 48° WSW 21:42:45 48° WSW
SeaSat 1 2.5 21:39:27 10° NE 21:44:18 54° ESE 21:44:35 54° SE
EO 1 Del DPAF 3.6 21:41:17 10° NNE 21:44:29 52° ENE 21:44:29 52° ENE
Cosmos 1975 Rocket 4.2 21:44:36 27° WSW 21:46:19 38° WNW 21:50:28 10° N
STARLINK-1099 4.3 21:44:08 10° WNW 21:47:31 43° WSW 21:47:31 43° WSW
Cosmos 292 Rocket 4.1 21:48:20 37° SW 21:50:03 62° WNW 21:54:53 10° NNE
BREEZE-M DEB (TANK) 4.3 21:38:19 10° W 21:51:36 53° NNW 21:55:21 10° NE
Meteor 2-10 4.1 21:48:02 10° N 21:53:00 55° ENE 21:53:43 50° ESE
Cosmos 2369 Rocket 2.8 21:49:04 19° SW 21:53:03 53° WNW 21:58:35 10° NNE
BREEZE-M DEB (TANK) 4.4 21:49:53 10° WNW 21:53:17 34° NNE 21:57:05 10° E
S3M 4.0 21:50:18 10° N 21:56:28 71° E 21:58:11 49° SSE
ATLAS CENTAUR R/B 1.6 21:59:35 62° ENE 21:59:35 62° ENE 22:03:14 10° NE
Cosmos 1340 Rocket 3.5 21:58:51 10° N 22:02:31 45° ENE 22:02:31 45° ENE
Cosmos 1025 Rocket 2.9 22:02:58 75° WSW 22:03:07 76° W 22:07:25 10° N
Thor Agena Rocket 3.6 22:00:37 10° NNE 22:05:55 79° WNW 22:07:11 53° SSW
ATLAS 2AS CENTAUR R/B 3.1 22:00:30 19° SW 22:06:32 83° NW 22:14:34 10° NE
Cosmos 1656 Rocket 3.7 22:04:50 46° SW 22:06:35 80° WNW 22:12:12 10° NNE
Cosmos 1553 Rocket 4.1 22:03:43 10° NNW 22:09:57 68° W 22:11:43 47° SSW
BREEZE-M DEB (TANK) 3.5 22:00:27 10° WNW 22:11:06 85° NNE 22:11:56 59° ESE
Cosmos 1953 2.5 22:07:08 10° N 22:10:41 64° NNE 22:10:41 64° NNE
STARLINK-1228 4.3 22:08:18 10° NW 22:11:08 44° N 22:11:08 44° N
Cosmos 1470 3.6 22:08:27 10° NNW 22:11:51 42° W 22:11:51 42° W
Cosmos 2292 Rocket 4.1 22:13:24 40° NE 22:13:24 40° NE 22:15:40 10° NNE
Cosmos 1655 Rocket 4.0 22:15:01 49° SSW 22:16:52 80° W 22:23:09 10° N
Cosmos 968 Rocket 3.7 22:12:01 10° NNW 22:17:02 55° WSW 22:17:31 52° SW
ATLAS 5 CENTAUR R/B 2.4 22:21:46 51° NW 22:21:49 51° NW 22:24:14 10° NNE
Terra 3.8 22:23:15 16° WSW 22:24:22 17° W 22:27:25 10° NW
Cosmos 1758 4.4 22:21:52 10° NNW 22:25:25 36° W 22:25:25 36° W
SL-4 R/B 3.4 22:22:00 10° W 22:26:39 46° NNW 22:31:19 10° NE
Cosmos 2228 3.8 22:24:49 10° N 22:28:36 42° ENE 22:28:36 42° ENE
Meteor 2-15 4.4 22:23:39 10° N 22:29:49 78° E 22:31:06 57° SSE
In-Cosmos 22 3.9 22:30:05 67° SSW 22:30:47 82° W 22:36:06 10° N
Cosmos 2266 Rocket 3.9 22:33:43 54° SSW 22:35:09 79° W 22:41:13 10° N
Cosmos 1503 Rocket 4.3 22:32:03 10° NNW 22:37:12 52° WSW 22:37:35 50° WSW
SJ 16-02 4.0 22:43:08 10° NNE 22:44:58 12° NE 22:46:47 10° E
Cosmos 1674 3.5 22:48:20 50° N 22:48:20 50° N 22:51:14 10° N
Meteor 2-15 Rocket 4.3 22:43:34 10° N 22:49:45 89° E 22:50:55 61° S
Helios 1B rocket 4.2 22:47:38 10° NE 22:50:09 22° ENE 22:50:09 22° ENE
COSMOS 2455 3.3 22:52:50 33° WSW 22:55:21 55° NW 23:01:17 10° NNE
USA 215 3.4 22:52:57 26° ESE 22:56:50 72° NE 23:03:22 10° NW
Cosmos 2219 4.4 22:54:38 10° N 22:59:49 35° ENE 23:02:17 24° ESE
Helios 1A 3.2 23:01:35 69° N 23:01:35 69° N 23:05:20 10° NNW
Cosmos 2297 Rocket 3.6 22:59:01 10° N 23:04:03 31° NE 23:07:00 20° ESE
Lacrosse 4 Rocket 4.4 23:05:56 10° NNE 23:07:14 11° NE 23:08:32 10° ENE
ALOS 2 3.3 23:07:47 43° WNW 23:07:47 43° WNW 23:11:32 10° NNW
STARLINK-1218 4.5 23:03:22 10° NW 23:07:23 47° NNE 23:07:55 44° NE
Cosmos 1726 4.2 23:05:15 10° NW 23:07:20 21° WNW 23:07:20 21° WNW
Timation 2 Rocket 3.8 23:05:19 10° NNW 23:11:38 86° ENE 23:12:55 59° SSE
Cosmos 2058 Rocket 3.3 23:07:45 10° N 23:11:58 66° ENE 23:11:58 66° ENE
STARLINK-1254 4.3 23:08:19 10° NW 23:12:22 50° NNE 23:12:41 49° NE
Meteor 2-5 Rocket 3.6 23:14:12 66° SW 23:14:56 78° W 23:20:34 10° N
CENTAUR R/B 3.9 23:09:09 10° NW 23:16:34 37° WSW 23:18:17 34° SW
STARLINK-1231 4.2 23:13:16 10° NW 23:17:21 54° NNE 23:17:27 54° NE
STARLINK-1378 4.5 23:18:28 43° NNE 23:18:28 43° NNE 23:21:14 10° NE
SL-14 R/B 3.9 23:19:11 51° NNE 23:19:11 51° NNE 23:22:10 10° N
ATLAS 3B R/B 2.8 23:13:13 10° NW 23:19:56 61° WSW 23:21:10 53° SSW
STARLINK-1379 4.4 23:21:51 45° NNE 23:21:51 45° NNE 23:24:45 10° NE
SeaSat 1 4.4 23:17:38 10° N 23:21:29 23° NW 23:24:20 14° W
Cosmos 1606 Rocket 4.3 23:18:00 10° NNW 23:21:36 43° WNW 23:21:36 43° WNW
Meteor 2-21 4.4 23:20:59 60° SSW 23:22:12 83° W 23:28:26 10° N
STARLINK-1232 4.1 23:18:15 10° NW 23:22:15 58° NNE 23:22:15 58° NNE
STARLINK-1329 4.4 23:23:14 46° NNE 23:23:14 46° NNE 23:26:13 10° NE
STARLINK-1362 4.3 23:26:40 47° N 23:26:40 47° N 23:29:47 10° NE
STARLINK-1208 4.1 23:23:12 10° NW 23:27:00 60° N 23:27:00 60° N
Cosmos 1656 4.1 23:27:53 47° ESE 23:28:17 47° ESE 23:33:39 10° NE
STARLINK-1373 4.3 23:30:05 48° N 23:30:05 48° N 23:33:21 10° NE
ATLAS CENTAUR R/B 3.5 23:27:26 10° NNW 23:29:43 26° NE 23:33:46 10° ESE
RESURS DK-1 3.4 23:29:48 37° WNW 23:29:55 37° WNW 23:33:48 10° N
STARLINK-1365 4.3 23:31:12 47° NNW 23:31:12 47° NNW 23:34:36 10° NE
STARLINK-1271 4.0 23:28:12 10° NW 23:31:49 60° NNW 23:31:49 60° NNW
STARLINK-1390 4.3 23:33:34 47° NNW 23:33:34 47° NNW 23:36:58 10° NE
Cosmos 1697 Rocket 3.9 23:32:47 28° ESE 23:33:20 28° ESE 23:38:06 10° NE
Cosmos 2084 4.4 23:33:36 40° WNW 23:34:16 43° NW 23:38:32 10° NNE
Cosmos 1626 3.1 23:36:00 44° NNW 23:36:00 44° NNW 23:38:48 10° N
BREEZE-M R/B 3.6 23:31:45 22° WSW 23:36:25 75° NNW 23:40:13 10° ENE
STARLINK-1154 4.1 23:33:10 10° NW 23:36:35 56° NNW 23:36:35 56° NNW
Okean 1-7 Rocket 3.9 23:37:39 56° WNW 23:37:39 56° WNW 23:41:59 10° N
ATLAS CENTAUR R/B 4.0 23:35:42 10° W 23:38:20 16° NW 23:40:59 10° N
Cosmos 2227 Rocket 2.8 23:35:35 10° NNW 23:41:08 51° ENE 23:43:30 32° ESE
STARLINK-1197 4.2 23:38:07 10° NW 23:41:21 52° NW 23:41:21 52° NW
CZ-4 R/B 3.7 23:38:55 10° NNE 23:43:41 81° WNW 23:43:50 79° WSW
Cosmos 1602 Rocket 3.8 23:47:23 57° E 23:47:23 57° E 23:51:27 10° NNE
STARLINK-1198 4.3 23:43:06 10° NW 23:46:07 47° NW 23:46:07 47° NW
SL-08 ROCKET BODY 4.3 23:46:46 58° SSE 23:47:55 76° E 23:53:46 10° N
STARLINK-1199 4.5 23:48:06 10° NW 23:50:55 42° NW 23:50:55 42° NW
